When you browse on this site, cookies collect data to enhance your experience and personalize the content and advertising you see.
Visit our Privacy Policy to learn more. By continuing to use the site, you agree to this use of cookies and data.
  • In Portugal
  • List of Countries
  • For 7 days
  • Water Temperature
  • Satellite Maps
  • Weather Map
  • Weather Widgets
  • user-avatar
    Login

    Hourly Weather Lyamino

    Today, 16 July, Tuesday

    Time Temperature Precipitation Wind Pressure Humidity
    00:00 +18°C° 0 mm 3 mps 733 mmHg 97%
    01:00 +18°C° 0 mm 3 mps 732 mmHg 96%
    02:00 +17°C° 0.1 mm 3 mps 733 mmHg 97%
    03:00 +17°C° 0.1 mm 2 mps 733 mmHg 98%
    04:00 +17°C° 0 mm 2 mps 734 mmHg 97%
    05:00 +17°C° 0.5 mm 3 mps 734 mmHg 97%
    06:00 +15°C° 0.5 mm 4 mps 735 mmHg 97%
    07:00 +15°C° 0.5 mm 4 mps 735 mmHg 98%
    08:00 +15°C° 0.6 mm 5 mps 736 mmHg 97%
    09:00 +14°C° 0.6 mm 6 mps 737 mmHg 96%
    10:00 +14°C° 0 mm 6 mps 738 mmHg 96%
    11:00 +14°C° 0.2 mm 6 mps 739 mmHg 95%
    12:00 +14°C° 0.2 mm 6 mps 740 mmHg 93%
    13:00 +14°C° 0.2 mm 6 mps 740 mmHg 91%
    14:00 +16°C° 0 mm 5 mps 741 mmHg 80%
    15:00 +20°C° 0 mm 5 mps 742 mmHg 69%
    16:00 +22°C° 0 mm 5 mps 743 mmHg 58%
    17:00 +21°C° 0.1 mm 5 mps 744 mmHg 66%
    18:00 +20°C° 0.1 mm 4 mps 744 mmHg 73%
    19:00 +19°C° 0.1 mm 4 mps 744 mmHg 81%
    20:00 +18°C° 0 mm 3 mps 745 mmHg 85%
    21:00 +17°C° 0 mm 3 mps 746 mmHg 90%
    22:00 +16°C° 0 mm 3 mps 746 mmHg 94%
    23:00 +14°C° 0 mm 3 mps 747 mmHg 94%

    Tomorrow, 17 July, Wednesday

    Time Temperature Precipitation Wind Pressure Humidity
    00:00 +14°C° 0 mm 3 mps 747 mmHg 93%
    01:00 +13°C° 0 mm 3 mps 747 mmHg 93%
    02:00 +14°C° 0 mm 2 mps 748 mmHg 94%
    03:00 +13°C° 0 mm 2 mps 748 mmHg 95%
    04:00 +13°C° 0 mm 2 mps 748 mmHg 96%
    05:00 +14°C° 0 mm 2 mps 748 mmHg 90%
    06:00 +16°C° 0 mm 2 mps 749 mmHg 85%
    07:00 +17°C° 0 mm 2 mps 749 mmHg 79%
    08:00 +19°C° 0 mm 3 mps 749 mmHg 70%
    09:00 +20°C° 0 mm 3 mps 749 mmHg 60%
    10:00 +22°C° 0 mm 3 mps 749 mmHg 51%
    11:00 +22°C° 0 mm 3 mps 749 mmHg 48%
    12:00 +24°C° 0 mm 3 mps 749 mmHg 46%
    13:00 +25°C° 0 mm 3 mps 749 mmHg 43%
    14:00 +25°C° 0 mm 3 mps 749 mmHg 44%
    15:00 +25°C° 0 mm 3 mps 749 mmHg 44%
    16:00 +25°C° 0 mm 3 mps 748 mmHg 44%
    17:00 +24°C° 0 mm 3 mps 748 mmHg 51%
    18:00 +23°C° 0 mm 2 mps 748 mmHg 59%
    19:00 +22°C° 0 mm 1 mps 748 mmHg 66%
    20:00 +20°C° 0 mm 1 mps 748 mmHg 70%
    21:00 +18°C° 0 mm 1 mps 749 mmHg 74%
    22:00 +15°C° 0 mm 1 mps 749 mmHg 79%
    23:00 +14°C° 0 mm 1 mps 748 mmHg 81%

    Day after tomorrow, 18 July, Thursday

    Time Temperature Precipitation Wind Pressure Humidity
    00:00 +13°C° 0 mm 1 mps 748 mmHg 83%
    01:00 +13°C° 0 mm 1 mps 748 mmHg 85%
    02:00 +12°C° 0 mm 1 mps 748 mmHg 86%
    03:00 +12°C° 0 mm 1 mps 748 mmHg 86%
    04:00 +11°C° 0 mm 1 mps 748 mmHg 87%
    05:00 +13°C° 0 mm 1 mps 748 mmHg 80%
    06:00 +15°C° 0 mm 1 mps 748 mmHg 74%
    07:00 +18°C° 0 mm 1 mps 748 mmHg 67%
    08:00 +20°C° 0 mm 1 mps 747 mmHg 60%
    09:00 +20°C° 0 mm 2 mps 747 mmHg 54%
    10:00 +23°C° 0 mm 2 mps 747 mmHg 48%
    11:00 +24°C° 0 mm 2 mps 747 mmHg 44%
    12:00 +24°C° 0 mm 2 mps 747 mmHg 41%
    13:00 +25°C° 0 mm 2 mps 747 mmHg 38%
    14:00 +25°C° 0 mm 2 mps 746 mmHg 38%
    15:00 +26°C° 0 mm 2 mps 746 mmHg 38%
    16:00 +26°C° 0 mm 2 mps 746 mmHg 38%
    17:00 +25°C° 0 mm 2 mps 746 mmHg 45%
    18:00 +23°C° 0 mm 1 mps 746 mmHg 53%
    19:00 +22°C° 0 mm 1 mps 746 mmHg 60%
    20:00 +20°C° 0 mm 1 mps 746 mmHg 64%
    21:00 +16°C° 0 mm 0 mps 746 mmHg 67%
    22:00 +14°C° 0 mm 0 mps 746 mmHg 71%
    23:00 +14°C° 0 mm 0 mps 745 mmHg 73%

    19 July, Friday

    Time Temperature Precipitation Wind Pressure Humidity
    00:00 +13°C° 0 mm 0 mps 745 mmHg 74%
    01:00 +13°C° 0 mm 0 mps 745 mmHg 76%
    02:00 +12°C° 0 mm 0 mps 745 mmHg 79%
    03:00 +12°C° 0 mm 0 mps 745 mmHg 82%
    04:00 +12°C° 0 mm 0 mps 745 mmHg 85%
    05:00 +14°C° 0 mm 1 mps 745 mmHg 82%
    06:00 +16°C° 0 mm 1 mps 745 mmHg 80%
    07:00 +19°C° 0 mm 1 mps 745 mmHg 77%
    08:00 +21°C° 0 mm 1 mps 745 mmHg 71%
    09:00 +23°C° 0 mm 1 mps 745 mmHg 64%
    10:00 +24°C° 0 mm 1 mps 745 mmHg 58%
    11:00 +25°C° 0 mm 1 mps 745 mmHg 54%
    12:00 +26°C° 0 mm 1 mps 745 mmHg 50%
    13:00 +27°C° 0 mm 2 mps 745 mmHg 46%
    14:00 +27°C° 0 mm 2 mps 745 mmHg 46%
    15:00 +27°C° 0 mm 1 mps 745 mmHg 45%
    16:00 +28°C° 0 mm 1 mps 745 mmHg 45%
    17:00 +27°C° 0 mm 1 mps 745 mmHg 53%
    18:00 +26°C° 0 mm 1 mps 745 mmHg 61%
    19:00 +25°C° 0 mm 1 mps 745 mmHg 68%
    20:00 +23°C° 0 mm 1 mps 745 mmHg 74%
    21:00 +21°C° 0 mm 1 mps 745 mmHg 79%
    22:00 +17°C° 0 mm 0 mps 745 mmHg 85%
    23:00 +16°C° 0 mm 0 mps 745 mmHg 87%

    20 July, Saturday

    Time Temperature Precipitation Wind Pressure Humidity
    00:00 +16°C° 0 mm 0 mps 746 mmHg 88%
    01:00 +18°C° 0 mm 1 mps 746 mmHg 90%
    02:00 +18°C° 0 mm 1 mps 746 mmHg 90%
    03:00 +18°C° 0 mm 1 mps 746 mmHg 89%
    04:00 +16°C° 0 mm 1 mps 746 mmHg 89%
    05:00 +19°C° 0 mm 1 mps 746 mmHg 85%
    06:00 +20°C° 0 mm 1 mps 746 mmHg 80%
    07:00 +22°C° 0 mm 1 mps 746 mmHg 76%
    08:00 +23°C° 0 mm 1 mps 746 mmHg 69%
    09:00 +25°C° 0 mm 1 mps 746 mmHg 62%
    10:00 +27°C° 0 mm 2 mps 746 mmHg 56%
    11:00 +28°C° 0 mm 2 mps 746 mmHg 54%
    12:00 +28°C° 0 mm 2 mps 746 mmHg 52%
    13:00 +29°C° 0 mm 2 mps 746 mmHg 50%
    14:00 +28°C° 0.8 mm 2 mps 746 mmHg 58%
    15:00 +27°C° 0.8 mm 2 mps 746 mmHg 66%
    16:00 +26°C° 0.8 mm 2 mps 745 mmHg 75%
    17:00 +26°C° 0.3 mm 1 mps 745 mmHg 77%
    18:00 +25°C° 0.3 mm 1 mps 745 mmHg 79%
    19:00 +25°C° 0.3 mm 1 mps 746 mmHg 81%
    20:00 +23°C° 0.3 mm 1 mps 745 mmHg 84%
    21:00 +21°C° 0.3 mm 1 mps 745 mmHg 88%
    22:00 +20°C° 0.3 mm 1 mps 745 mmHg 92%
    23:00 +19°C° 0 mm 1 mps 745 mmHg 92%

    21 July, Sunday

    Time Temperature Precipitation Wind Pressure Humidity
    00:00 +18°C° 0 mm 1 mps 745 mmHg 93%
    01:00 +18°C° 0 mm 1 mps 745 mmHg 93%
    02:00 +18°C° 0 mm 1 mps 745 mmHg 94%
    03:00 +16°C° 0 mm 1 mps 745 mmHg 94%
    04:00 +16°C° 0 mm 1 mps 745 mmHg 94%
    05:00 +18°C° 0 mm 1 mps 745 mmHg 93%
    06:00 +19°C° 0 mm 1 mps 745 mmHg 92%
    07:00 +20°C° 0 mm 1 mps 745 mmHg 90%
    08:00 +21°C° 0.3 mm 1 mps 745 mmHg 84%
    09:00 +23°C° 0.3 mm 2 mps 745 mmHg 78%
    10:00 +24°C° 0.3 mm 2 mps 745 mmHg 72%
    11:00 +25°C° 0.9 mm 2 mps 744 mmHg 69%
    12:00 +26°C° 0.9 mm 2 mps 744 mmHg 67%
    13:00 +26°C° 0.9 mm 2 mps 744 mmHg 65%
    14:00 +26°C° 0.9 mm 2 mps 744 mmHg 68%
    15:00 +25°C° 0.9 mm 2 mps 744 mmHg 72%
    16:00 +25°C° 0.9 mm 3 mps 744 mmHg 76%
    17:00 +24°C° 0.7 mm 2 mps 744 mmHg 80%
    18:00 +23°C° 0.7 mm 2 mps 744 mmHg 84%
    19:00 +21°C° 0.7 mm 2 mps 744 mmHg 88%
    20:00 +20°C° 0.1 mm 2 mps 744 mmHg 90%
    21:00 +19°C° 0.1 mm 3 mps 744 mmHg 93%
    22:00 +18°C° 0.1 mm 3 mps 744 mmHg 96%
    23:00 +17°C° 0 mm 3 mps 744 mmHg 96%
    Show more